Waarnemingen

Advertentie
Mijn weer
Alghero, Italië (16520): temperatuur & dauwpunt: 17.09.2018 02:00:00 - 23.09.2018 02:00:00 (CEST)Alghero, Italië (16520): windsnelheid: 17.09.2018 02:00:00 - 23.09.2018 02:00:00 (CEST)Alghero, Italië (16520): windrichting: 17.09.2018 02:00:00 - 23.09.2018 02:00:00 (CEST)Alghero, Italië (16520): luchtdruk: 17.09.2018 02:00:00 - 23.09.2018 02:00:00 (CEST)Alghero, Italië (16520): zicht: 17.09.2018 02:00:00 - 23.09.2018 02:00:00 (CEST)Alghero, Italië (16520): neerslag: 17.09.2018 02:00:00 - 23.09.2018 02:00:00 (CEST)
Datum & Tijd tt [°C] td [°C] ff [km/u] ff [kn] dd ppp [hPa] vv [km] rr [mm]
23.09.2018 02:00:00 16,6 15,1 4 2 - 1020,4 10 -
23.09.2018 01:00:00 17,0 15,0 4 2 - - 10 -
23.09.2018 00:00:00 17,0 15,0 4 2 - - 10 -
22.09.2018 23:00:00 18,6 15,4 2 1 - 1020,8 10 0,0
22.09.2018 22:00:00 19,0 15,0 2 1 - - 10 -
22.09.2018 21:00:00 20,0 16,0 5 3 ZZW - 10 -
22.09.2018 20:00:00 20,9 15,5 8 4 ZW 1020,0 10 -
22.09.2018 19:00:00 24,0 16,0 8 4 WZW - 10 -
22.09.2018 18:00:00 25,0 15,0 9 5 W - 10 -
22.09.2018 17:00:00 25,5 18,2 13 7 W 1019,5 10 0,0
22.09.2018 16:00:00 27,0 19,0 13 7 W - 10 -
22.09.2018 15:00:00 27,0 19,0 13 7 WNW - 10 -
22.09.2018 14:00:00 27,3 19,5 13 7 WNW 1019,6 10 -
22.09.2018 13:00:00 27,0 20,0 13 7 W - 10 -
22.09.2018 12:00:00 27,0 20,0 11 6 W - 10 -
22.09.2018 11:00:00 27,0 19,0 9 5 WNW - 10 -
22.09.2018 10:00:00 25,0 21,0 4 2 - - 10 -
22.09.2018 09:00:00 21,0 21,0 2 1 - - 10 -
22.09.2018 08:00:00 18,4 18,1 2 1 - 1018,2 8 -
22.09.2018 07:00:00 18,0 17,0 2 1 O - 10 -
22.09.2018 06:00:00 18,0 17,0 4 2 - - 6 -
22.09.2018 05:00:00 17,6 17,3 0 0 N 1017,7 10 0,0
22.09.2018 04:00:00 - - - - - - - -
22.09.2018 03:00:00 19,0 19,0 4 2 ZZO - 10 -
22.09.2018 02:00:00 19,9 19,5 4 2 ONO 1018,2 10 -
22.09.2018 01:00:00 21,0 20,0 2 1 - - 10 -
22.09.2018 00:00:00 21,0 20,0 5 3 ZO - 10 -
21.09.2018 23:00:00 21,6 20,6 4 2 - 1018,0 10 0,0
21.09.2018 22:00:00 23,0 21,0 2 1 - - 10 -
21.09.2018 21:00:00 23,0 21,0 5 3 N - 10 -
21.09.2018 20:00:00 24,2 20,1 5 3 NNO 1015,9 10 -
21.09.2018 19:00:00 27,0 18,0 13 7 NNW - 10 -
21.09.2018 18:00:00 28,0 18,0 15 8 NNW - 10 -
21.09.2018 17:00:00 27,9 18,7 18 10 NNW 1015,6 10 0,0
21.09.2018 16:00:00 29,0 18,0 16 9 N - 10 -
21.09.2018 15:00:00 29,0 18,0 21 11 N - 10 -
21.09.2018 14:00:00 29,1 18,7 18 10 NNO 1015,5 10 -
21.09.2018 13:00:00 29,0 18,0 21 11 NNO - 10 -
21.09.2018 12:00:00 28,0 20,0 22 12 NNO - 10 -
21.09.2018 11:00:00 26,7 19,4 24 13 NNO 1015,7 10 0,0
21.09.2018 10:00:00 26,0 21,0 21 11 NNO - 10 -
21.09.2018 09:00:00 24,0 20,0 11 6 NNO - 10 -
21.09.2018 08:00:00 22,1 19,2 11 6 NNO 1014,8 10 -
21.09.2018 07:00:00 22,0 20,0 13 7 NNO - 10 -
21.09.2018 06:00:00 22,0 20,0 11 6 N - 10 -
21.09.2018 05:00:00 22,1 19,7 9 5 N 1014,5 10 0,0
21.09.2018 04:00:00 23,0 19,0 15 8 N - 10 -
21.09.2018 03:00:00 23,0 20,0 13 7 N - 10 -
21.09.2018 02:00:00 22,6 20,2 13 7 N 1014,8 10 -
21.09.2018 01:00:00 22,0 21,0 11 6 NNO - 10 -
21.09.2018 00:00:00 23,0 20,0 11 6 N - 10 -
20.09.2018 23:00:00 22,4 19,9 9 5 NNO 1015,6 10 0,0
20.09.2018 22:00:00 23,0 21,0 8 4 N - 10 -
20.09.2018 21:00:00 24,0 21,0 13 7 NNO - 10 -
20.09.2018 20:00:00 24,3 20,4 13 7 NNO 1015,1 10 -
20.09.2018 19:00:00 26,0 19,0 18 10 NNO - 10 -
20.09.2018 18:00:00 27,0 19,0 21 11 NNO - 10 -
20.09.2018 17:00:00 27,7 18,5 22 12 NNO 1015,3 10 0,0
20.09.2018 16:00:00 28,0 19,0 21 11 NNO - 10 -
20.09.2018 15:00:00 28,0 20,0 15 8 NNO - 10 -
20.09.2018 14:00:00 27,9 20,0 16 9 NNO 1016,5 10 -
20.09.2018 13:00:00 27,0 20,0 15 8 NNO - 10 -
20.09.2018 12:00:00 27,0 21,0 15 8 NO - 10 -
20.09.2018 11:00:00 26,2 22,3 8 4 O 1017,6 10 0,0
20.09.2018 10:00:00 23,0 21,0 2 1 - - 10 -
20.09.2018 09:00:00 20,0 19,0 2 1 - - 10 -
20.09.2018 08:00:00 18,6 18,2 2 1 NNW 1017,4 10 -
20.09.2018 07:00:00 19,0 18,0 0 0 N - 10 -
20.09.2018 06:00:00 19,0 18,0 2 1 - - 10 -
20.09.2018 05:00:00 19,0 18,5 2 1 - 1017,6 10 0,0
20.09.2018 04:00:00 19,0 19,0 5 3 N - 10 -
20.09.2018 03:00:00 20,0 19,0 2 1 - - 10 -
20.09.2018 02:00:00 19,8 19,3 2 1 - 1018,4 10 -
20.09.2018 01:00:00 21,0 20,0 5 3 NNO - 10 -
20.09.2018 00:00:00 21,0 20,0 2 1 - - 10 -
19.09.2018 23:00:00 21,6 20,5 5 3 NO 1018,8 10 0,0
19.09.2018 22:00:00 23,0 21,0 8 4 N - 10 -
19.09.2018 21:00:00 23,0 21,0 9 5 N - 10 -
19.09.2018 20:00:00 24,1 20,8 11 6 NNO 1017,4 10 -
19.09.2018 19:00:00 25,0 21,0 15 8 NNO - 10 -
19.09.2018 18:00:00 26,0 21,0 18 10 NNO - 10 -
19.09.2018 17:00:00 26,4 20,5 15 8 NNO 1017,1 10 0,0
19.09.2018 16:00:00 25,0 21,0 11 6 NNO - 10 -
19.09.2018 15:00:00 25,0 21,0 15 8 N - 10 -
19.09.2018 14:00:00 26,0 21,7 21 11 NNO 1017,1 10 -
19.09.2018 13:00:00 27,0 22,0 8 4 N - 10 -
19.09.2018 12:00:00 25,0 22,0 5 3 NNW - 10 -
19.09.2018 11:00:00 23,0 21,8 13 7 N 1017,9 10 0,0
19.09.2018 10:00:00 23,0 22,0 4 2 - - 10 -
19.09.2018 09:00:00 22,0 22,0 8 4 NNO - 10 -
19.09.2018 08:00:00 21,7 21,0 2 1 - 1017,0 10 -
19.09.2018 07:00:00 22,0 21,0 8 4 NNO - 8 -
19.09.2018 06:00:00 22,0 21,0 8 4 N - 8 -
19.09.2018 05:00:00 21,5 21,0 5 3 NNO 1016,4 8 0,0
19.09.2018 04:00:00 21,0 21,0 8 4 NO - 8 -
19.09.2018 03:00:00 21,0 21,0 11 6 NNO - 8 -
19.09.2018 02:00:00 21,7 21,0 13 7 NO 1017,3 6 -
19.09.2018 01:00:00 23,0 21,0 11 6 NO - 10 -
19.09.2018 00:00:00 23,0 22,0 9 5 NNO - 10 -
18.09.2018 23:00:00 22,9 21,5 9 5 NNO 1017,8 10 0,0
18.09.2018 22:00:00 23,0 22,0 13 7 NNO - 10 -
18.09.2018 21:00:00 23,0 22,0 8 4 N - 10 -
18.09.2018 20:00:00 23,6 21,9 5 3 O 1016,7 10 -
18.09.2018 19:00:00 24,0 21,0 2 1 - - 10 -
18.09.2018 18:00:00 24,0 21,0 4 2 - - 10 -
18.09.2018 17:00:00 23,7 21,4 8 4 NNW 1017,0 10 0,0
18.09.2018 16:00:00 25,0 22,0 13 7 ZZW - 10 -
18.09.2018 15:00:00 26,0 21,0 18 10 ZZW - 10 -
18.09.2018 14:00:00 27,4 19,2 11 6 ZW 1018,0 10 -
18.09.2018 13:00:00 25,0 21,0 2 1 - - 10 -
18.09.2018 12:00:00 24,0 21,0 8 4 O - 10 -
18.09.2018 11:00:00 22,9 21,8 5 3 ZZO 1018,6 8 0,0
18.09.2018 10:00:00 22,0 20,0 4 2 - - 10 -
18.09.2018 09:00:00 21,0 19,0 2 1 - - 10 -
18.09.2018 08:00:00 20,1 18,8 2 1 N 1017,7 20 -
18.09.2018 07:00:00 19,0 18,0 8 4 NNO - 10 -
18.09.2018 06:00:00 19,0 18,0 2 1 O - 10 -
18.09.2018 05:00:00 - - - - - - - -
18.09.2018 04:00:00 20,0 18,0 4 2 NNO - 10 -
18.09.2018 03:00:00 20,0 18,0 4 2 NNO - 10 -
18.09.2018 02:00:00 19,8 18,3 4 2 N 1017,9 10 -
18.09.2018 01:00:00 21,0 19,0 5 3 NNO - 10 -
18.09.2018 00:00:00 22,0 20,0 5 3 N - 10 -
17.09.2018 23:00:00 21,8 20,4 2 1 - 1018,5 10 0,0
17.09.2018 22:00:00 23,0 20,0 2 1 - - 10 -
17.09.2018 21:00:00 24,0 20,0 5 3 NNO - 10 -
17.09.2018 20:00:00 24,8 20,4 4 2 - 1018,4 10 -
17.09.2018 19:00:00 27,0 20,0 5 3 ZZW - 10 -
17.09.2018 18:00:00 28,0 20,0 8 4 WNW - 10 -
17.09.2018 17:00:00 28,9 18,4 16 9 ZZW 1018,3 10 0,0
17.09.2018 16:00:00 29,0 18,0 9 5 W - 10 -
17.09.2018 15:00:00 29,0 20,0 13 7 WNW - 10 -
17.09.2018 14:00:00 29,1 18,5 2 1 - 1019,7 10 -
17.09.2018 13:00:00 26,0 23,0 5 3 N - 10 -
17.09.2018 12:00:00 24,0 22,0 5 3 NNO - 10 -
17.09.2018 11:00:00 23,8 21,4 5 3 ZO 1020,4 9 0,0
17.09.2018 10:00:00 24,0 21,0 5 3 NNO - 10 -
17.09.2018 09:00:00 22,0 20,0 4 2 - - 10 -
17.09.2018 08:00:00 19,8 18,9 4 2 NNO 1020,1 10 -
17.09.2018 07:00:00 20,0 19,0 4 2 - - 10 -
17.09.2018 06:00:00 20,0 19,0 2 1 - - 10 -
17.09.2018 05:00:00 20,1 18,9 2 1 - 1019,9 10 0,0
17.09.2018 04:00:00 20,0 19,0 4 2 - - 10 -
17.09.2018 03:00:00 20,0 19,0 2 1 - - 10 -
17.09.2018 02:00:00 20,5 19,6 2 1 - 1020,6 10 -

tt = temperatuur
td = dauwpunt
ff = windsnelheid
dd = windrichting
ppp = luchtdruk
vv = zicht
rr = neerslag

Weerstations in de omgeving